Date String (YYYY-MM-DD hh:mm:ss) UTC,Instrument flags,absolute air pressure of the measurement (hPa),sample flow rate (lpm),inlet stack bypass flow (lpm),air temperature of the measurement (°C),ambient temperature measured by the external sensor (°C),aerosol sample conditioner tube jacket temperature (°C),OPC LED temperature (°C),internal box temperature (°C),relative humidity of the measurement (%),span deviation,mass concentration of particles derived from Lorenz-Mie calculation of OPC scattering (μg/m³),mass concentration of particles derived from Lorenz-Mie calculation of OPC scattering (μg/m³),mass concentration of particles derived from Lorenz-Mie calculation of OPC scattering (μg/m³)
DateTimeUTC,F1_M11,P_M11,Q1_M11,Q2_M11,T1_M11,T2_M11,T3_M11,T4_M11,T5_M11,U1_M11,ZSPAN_M11,X0_M11,X2_M11,X1_M11
2024-02-21 15:00:00,SystemResetWarning,0824.9,5.00,000.00,022.2,021.6,000.0,030.6,024.1,19.4,0000.0,0009.45,0002.76,0002.00
2024-02-21 15:01:00,SystemResetWarning,0824.9,5.00,000.00,022.2,021.6,000.0,030.6,024.1,19.4,0000.0,0008.33,0002.85,0002.08
2024-02-21 15:02:00,SystemResetWarning,0824.9,5.01,000.00,022.2,021.7,000.0,030.6,024.1,19.2,0000.0,0008.03,0002.90,0002.16
2024-02-21 15:03:00,SystemResetWarning,0825.0,5.01,000.00,022.2,021.7,000.0,030.6,024.1,19.0,0000.0,0008.30,0002.95,0002.20
2024-02-21 15:04:00,SystemResetWarning,0824.9,5.00,000.00,022.2,021.7,000.0,030.6,024.1,19.2,0000.0,0008.57,0002.97,0002.23
2024-02-21 15:05:00,SystemResetWarning,0824.9,5.00,000.00,022.2,021.7,000.0,030.6,024.1,19.3,0000.0,0009.55,0002.97,0002.25
2024-02-21 15:06:00,SystemResetWarning,0824.9,4.99,000.00,022.3,021.7,000.0,030.6,024.1,19.0,0000.0,0010.00,0002.96,0002.25
2024-02-21 15:07:00,SystemResetWarning,0824.9,4.99,000.00,022.3,021.7,000.0,030.7,024.1,19.0,0000.0,0010.44,0003.00,0002.24
2024-02-21 15:08:00,SystemResetWarning,0824.9,5.00,000.00,022.3,021.7,000.0,030.7,024.1,18.9,0000.0,0009.73,0003.01,0002.21
2024-02-21 15:09:00,SystemResetWarning,0824.9,5.02,000.00,022.3,021.7,000.0,030.7,024.1,19.2,0000.0,0009.05,0003.01,0002.20
2024-02-21 15:10:00,SystemResetWarning,0824.9,4.99,000.00,022.3,021.7,000.0,030.7,024.1,18.9,0000.0,0008.82,0002.97,0002.20
2024-02-21 15:11:00,SystemResetWarning,0824.9,4.99,000.00,022.3,021.7,000.0,030.7,024.1,18.9,0000.0,0008.78,0002.96,0002.17
2024-02-21 15:12:00,SystemResetWarning,0824.9,4.99,000.00,022.3,021.7,000.0,030.7,024.2,19.1,0000.0,0008.88,0003.00,0002.15
2024-02-21 15:13:00,SystemResetWarning,0824.9,5.01,000.00,022.3,021.7,000.0,030.7,024.2,19.2,0000.0,0008.90,0003.01,0002.12
2024-02-21 15:14:00,SystemResetWarning,0824.9,5.01,000.00,022.3,021.7,000.0,030.7,024.1,19.4,0000.0,0008.89,0003.05,0002.13
2024-02-21 15:15:00,SystemResetWarning,0824.9,4.99,000.00,022.3,021.7,000.0,030.7,024.2,19.6,0000.0,0008.95,0003.04,0002.14
2024-02-21 15:16:00,SystemResetWarning,0824.9,4.99,000.00,022.3,021.8,000.0,030.7,024.2,19.8,0000.0,0008.81,0003.03,0002.13
2024-02-21 15:17:00,SystemResetWarning,0824.9,5.00,000.00,022.3,021.8,000.0,030.7,024.2,20.0,0000.0,0008.21,0003.00,0002.12
2024-02-21 15:18:00,SystemResetWarning,0824.9,5.01,000.00,022.3,021.8,000.0,030.7,024.2,20.1,0000.0,0007.47,0002.99,0002.11
2024-02-21 15:19:00,SystemResetWarning,0824.9,5.01,000.00,022.3,021.8,000.0,030.7,024.2,19.7,0000.0,0007.82,0002.95,0002.13
2024-02-21 15:20:00,SystemResetWarning,0824.9,5.00,000.00,022.3,021.8,000.0,030.7,024.2,19.4,0000.0,0008.18,0002.92,0002.13
2024-02-21 15:21:00,SystemResetWarning,0824.9,4.99,000.00,022.3,021.8,000.0,030.7,024.2,19.2,0000.0,0008.27,0002.96,0002.14
2024-02-21 15:22:00,SystemResetWarning,0824.9,4.99,000.00,022.4,021.8,000.0,030.7,024.2,19.4,0000.0,0008.23,0002.93,0002.13
2024-02-21 15:23:00,SystemResetWarning,0824.9,5.00,000.00,022.4,021.8,000.0,030.7,024.2,19.4,0000.0,0008.16,0002.90,0002.14
2024-02-21 15:24:00,SystemResetWarning,0824.9,5.00,000.00,022.4,021.8,000.0,030.8,024.2,19.7,0000.0,0008.41,0002.90,0002.13
2024-02-21 15:25:00,SystemResetWarning,0824.9,5.00,000.00,022.4,021.8,000.0,030.8,024.2,19.3,0000.0,0008.40,0002.84,0002.12
2024-02-21 15:26:00,SystemResetWarning,0824.9,5.01,000.00,022.4,021.8,000.0,030.8,024.2,19.4,0000.0,0008.26,0002.83,0002.10
2024-02-21 15:27:00,SystemResetWarning,0824.8,5.01,000.00,022.4,021.8,000.0,030.8,024.2,19.5,0000.0,0007.46,0002.80,0002.09
2024-02-21 15:28:00,SystemResetWarning,0824.7,4.99,000.00,022.4,021.8,000.0,030.8,024.2,19.3,0000.0,0007.95,0002.85,0002.10
2024-02-21 15:29:00,SystemResetWarning,0824.7,5.00,000.00,022.4,021.9,000.0,030.8,024.2,19.1,0000.0,0008.02,0002.89,0002.11
2024-02-21 15:30:00,SystemResetWarning,0824.7,5.00,000.00,022.4,021.9,000.0,030.8,024.3,19.0,0000.0,0007.75,0002.96,0002.10
2024-02-21 15:31:00,SystemResetWarning,0824.7,5.00,000.00,022.4,021.9,000.0,030.8,024.3,19.1,0000.0,0008.46,0003.02,0002.10
2024-02-21 15:32:00,SystemResetWarning,0824.7,5.00,000.00,022.4,021.9,000.0,030.8,024.3,19.3,0000.0,0009.25,0003.04,0002.08
2024-02-21 15:33:00,SystemResetWarning,0824.7,5.00,000.00,022.4,021.9,000.0,030.8,024.3,19.4,0000.0,0009.95,0003.08,0002.05
2024-02-21 15:34:00,SystemResetWarning,0824.7,5.00,000.00,022.4,021.9,000.0,030.8,024.3,19.4,0000.0,0010.28,0003.09,0002.04
2024-02-21 15:35:00,SystemResetWarning,0824.7,5.00,000.00,022.5,021.9,000.0,030.8,024.3,19.5,0000.0,0010.45,0003.05,0002.01
2024-02-21 15:36:00,SystemResetWarning,0824.7,5.00,000.00,022.5,021.9,000.0,030.8,024.3,19.3,0000.0,0010.21,0003.06,0002.00
2024-02-21 15:37:00,SystemResetWarning,0824.7,5.00,000.00,022.5,021.9,000.0,030.8,024.3,19.5,0000.0,0010.92,0003.09,0002.02
2024-02-21 15:38:00,SystemResetWarning,0824.7,5.00,000.00,022.5,022.0,000.0,030.8,024.3,19.4,0000.0,0011.35,0003.13,0002.07
2024-02-21 15:39:00,SystemResetWarning,0824.7,5.00,000.00,022.5,022.0,000.0,030.9,024.3,19.3,0000.0,0011.25,0003.16,0002.14
2024-02-21 15:40:00,SystemResetWarning,0824.7,5.00,000.00,022.5,022.0,000.0,030.9,024.4,19.4,0000.0,0011.35,0003.19,0002.22
2024-02-21 15:41:00,SystemResetWarning,0824.7,5.00,000.00,022.5,022.0,000.0,030.9,024.3,19.5,0000.0,0011.46,0003.21,0002.30
2024-02-21 15:42:00,SystemResetWarning,0824.7,5.00,000.00,022.5,022.0,000.0,030.9,024.3,19.7,0000.0,0010.91,0003.24,0002.42
2024-02-21 15:43:00,SystemResetWarning,0824.7,4.99,000.00,022.5,022.0,000.0,030.9,024.3,19.8,0000.0,0010.43,0003.27,0002.54
2024-02-21 15:44:00,SystemResetWarning,0824.7,5.00,000.00,022.5,022.0,000.0,030.9,024.3,19.7,0000.0,0010.10,0003.31,0002.71
2024-02-21 15:45:00,SystemResetWarning,0824.7,5.01,000.00,022.6,022.0,000.0,030.9,024.4,19.6,0000.0,0011.17,0003.42,0002.91
2024-02-21 15:46:00,SystemResetWarning,0824.7,5.01,000.00,022.6,022.0,000.0,030.9,024.4,19.6,0000.0,0010.96,0003.54,0003.10
2024-02-21 15:47:00,SystemResetWarning,0824.5,5.00,000.00,022.6,022.0,000.0,030.9,024.4,19.7,0000.0,0010.94,0003.61,0003.21
2024-02-21 15:48:00,SystemResetWarning,0824.5,4.99,000.00,022.6,022.0,000.0,030.9,024.4,19.7,0000.0,0010.31,0003.69,0003.31
2024-02-21 15:49:00,SystemResetWarning,0824.5,4.99,000.00,022.6,022.0,000.0,030.9,024.4,19.8,0000.0,0009.91,0003.77,0003.37
2024-02-21 15:50:00,SystemResetWarning,0824.5,5.01,000.00,022.6,022.0,000.0,030.9,024.4,19.7,0000.0,0009.95,0003.84,0003.43
2024-02-21 15:51:00,SystemResetWarning,0824.7,5.00,000.00,022.6,022.0,000.0,030.9,024.4,19.6,0000.0,0010.50,0003.89,0003.49
2024-02-21 15:52:00,SystemResetWarning,0824.7,5.01,000.00,022.6,022.0,000.0,030.9,024.4,19.8,0000.0,0010.52,0003.94,0003.53
2024-02-21 15:53:00,SystemResetWarning,0824.8,5.00,000.00,022.6,022.0,000.0,031.0,024.4,19.6,0000.0,0009.99,0003.99,0003.56
2024-02-21 15:54:00,SystemResetWarning,0824.7,5.01,000.00,022.6,022.0,000.0,031.0,024.4,19.5,0000.0,0009.81,0004.06,0003.59
2024-02-21 15:55:00,SystemResetWarning,0824.6,5.00,000.00,022.6,022.1,000.0,031.0,024.4,19.4,0000.0,0009.58,0004.08,0003.61
2024-02-21 15:56:00,SystemResetWarning,0824.5,5.00,000.00,022.6,022.1,000.0,031.0,024.4,19.3,0000.0,0008.67,0004.04,0003.60
2024-02-21 15:57:00,SystemResetWarning,0824.5,5.00,000.00,022.6,022.1,000.0,031.0,024.5,19.3,0000.0,0009.03,0004.03,0003.59
2024-02-21 15:58:00,SystemResetWarning,0824.5,5.01,000.00,022.6,022.1,000.0,031.0,024.5,19.7,0000.0,0009.75,0004.03,0003.58
2024-02-21 15:59:00,SystemResetWarning,0824.7,5.00,000.00,022.6,022.1,000.0,031.0,024.5,19.5,0000.0,0010.05,0004.05,0003.58
